contact:dominique.lefevre@mio.osupytheas.fr, maurice.libes@osupytheas.fr, didier.mallarino@osupytheas.fr
Project:EMSO http://www.emso-fr.org/EMSO-France
Depth: 2436.0 m
Title:EMSO Ligure Ouest : Data MII capteur MICROCAT
DateTime_Computer,Latitude,Longitude,Temperature,Conductivity,Pressure,DateTime_Instrument
DateTime_Computer,Latitude,Longitude,degC,S m-1,dbar,DateTime_Instrument
2020-08-07T00:01:25Z,42.805,6.029,13.2994,4.60042,2470.217,2020-8-07T02:02:14Z
2020-08-07T00:04:28Z,42.805,6.029,13.2996,4.60014,2470.18,2020-8-07T02:05:17Z
2020-08-07T00:07:32Z,42.805,6.029,13.2997,4.60034,2470.194,2020-8-07T02:08:20Z
2020-08-07T00:10:35Z,42.805,6.029,13.2991,4.60023,2470.194,2020-8-07T02:11:23Z
2020-08-07T00:13:38Z,42.805,6.029,13.2993,4.60015,2470.171,2020-8-07T02:14:27Z
2020-08-07T00:16:41Z,42.805,6.029,13.2999,4.60014,2470.156,2020-8-07T02:17:30Z
2020-08-07T00:19:45Z,42.805,6.029,13.2986,4.60019,2470.156,2020-8-07T02:20:33Z
2020-08-07T00:22:48Z,42.805,6.029,13.3000,4.60019,2470.194,2020-8-07T02:23:36Z
2020-08-07T00:25:51Z,42.805,6.029,13.2993,4.60024,2470.18,2020-8-07T02:26:40Z
2020-08-07T00:28:54Z,42.805,6.029,13.2990,4.60020,2470.143,2020-8-07T02:29:43Z
2020-08-07T00:31:58Z,42.805,6.029,13.2997,4.60036,2470.171,2020-8-07T02:32:46Z
2020-08-07T00:35:01Z,42.805,6.029,13.2986,4.60037,2470.143,2020-8-07T02:35:49Z
2020-08-07T00:38:04Z,42.805,6.029,13.2991,4.60002,2470.18,2020-8-07T02:38:53Z
2020-08-07T00:41:07Z,42.805,6.029,13.3006,4.60041,2470.171,2020-8-07T02:41:56Z
2020-08-07T00:44:10Z,42.805,6.029,13.2987,4.60033,2470.11,2020-8-07T02:44:59Z
2020-08-07T00:47:14Z,42.805,6.029,13.2980,4.60029,2470.147,2020-8-07T02:48:03Z
2020-08-07T00:50:17Z,42.805,6.029,13.2989,4.60024,2470.166,2020-8-07T02:51:06Z
2020-08-07T00:53:20Z,42.805,6.029,13.2983,4.60021,2470.156,2020-8-07T02:54:09Z
2020-08-07T00:56:24Z,42.805,6.029,13.3004,4.59999,2470.133,2020-8-07T02:57:12Z
2020-08-07T00:59:27Z,42.805,6.029,13.2991,4.60031,2470.171,2020-8-07T03:00:15Z
2020-08-07T01:02:30Z,42.805,6.029,13.2991,4.60037,2470.147,2020-8-07T03:03:19Z
2020-08-07T01:05:33Z,42.805,6.029,13.2988,4.60031,2470.171,2020-8-07T03:06:22Z
2020-08-07T01:08:37Z,42.805,6.029,13.2988,4.60035,2470.156,2020-8-07T03:09:25Z
2020-08-07T01:11:40Z,42.805,6.029,13.2997,4.60026,2470.133,2020-8-07T03:12:29Z
2020-08-07T01:14:43Z,42.805,6.029,13.3006,4.60044,2470.124,2020-8-07T03:15:32Z
2020-08-07T01:17:46Z,42.805,6.029,13.2983,4.60027,2470.147,2020-8-07T03:18:35Z
2020-08-07T01:20:50Z,42.805,6.029,13.2990,4.60028,2470.133,2020-8-07T03:21:38Z
2020-08-07T01:23:53Z,42.805,6.029,13.2986,4.60028,2470.147,2020-8-07T03:24:42Z
2020-08-07T01:26:56Z,42.805,6.029,13.2991,4.60024,2470.11,2020-8-07T03:27:45Z
2020-08-07T01:30:00Z,42.805,6.029,13.2985,4.60023,2470.147,2020-8-07T03:30:48Z
2020-08-07T01:33:03Z,42.805,6.029,13.2999,4.60021,2470.124,2020-8-07T03:33:52Z
2020-08-07T01:36:06Z,42.805,6.029,13.2999,4.60022,2470.124,2020-8-07T03:36:55Z
2020-08-07T01:39:09Z,42.805,6.029,13.3004,4.60031,2470.147,2020-8-07T03:39:58Z
2020-08-07T01:42:13Z,42.805,6.029,13.2993,4.60029,2470.147,2020-8-07T03:43:01Z
2020-08-07T01:45:16Z,42.805,6.029,13.2987,4.60029,2470.087,2020-8-07T03:46:04Z
2020-08-07T01:48:19Z,42.805,6.029,13.2974,4.60001,2470.11,2020-8-07T03:49:08Z
2020-08-07T01:51:22Z,42.805,6.029,13.2980,4.59996,2470.133,2020-8-07T03:52:11Z
2020-08-07T01:54:26Z,42.805,6.029,13.2984,4.60015,2470.133,2020-8-07T03:55:14Z
2020-08-07T01:57:29Z,42.805,6.029,13.2983,4.60028,2470.147,2020-8-07T03:58:17Z
2020-08-07T02:00:32Z,42.805,6.029,13.2992,4.60023,2470.087,2020-8-07T04:01:21Z
2020-08-07T02:03:35Z,42.805,6.029,13.2993,4.60006,2470.133,2020-8-07T04:04:24Z
2020-08-07T02:06:38Z,42.805,6.029,13.3001,4.60031,2470.1,2020-8-07T04:07:27Z
2020-08-07T02:09:42Z,42.805,6.029,13.3009,4.60020,2470.1,2020-8-07T04:10:30Z
2020-08-07T02:12:45Z,42.805,6.029,13.2982,4.60020,2470.087,2020-8-07T04:13:34Z
2020-08-07T02:15:48Z,42.805,6.029,13.2982,4.60016,2470.1,2020-8-07T04:16:37Z
2020-08-07T02:18:52Z,42.805,6.029,13.2979,4.60014,2470.11,2020-8-07T04:19:40Z
2020-08-07T02:21:55Z,42.805,6.029,13.2990,4.60028,2470.1,2020-8-07T04:22:43Z
2020-08-07T02:24:58Z,42.805,6.029,13.2988,4.60016,2470.133,2020-8-07T04:25:47Z
2020-08-07T02:28:01Z,42.805,6.029,13.2986,4.60027,2470.11,2020-8-07T04:28:50Z
2020-08-07T02:31:05Z,42.805,6.029,13.3004,4.60007,2470.087,2020-8-07T04:31:53Z
2020-08-07T02:34:08Z,42.805,6.029,13.2996,4.60029,2470.133,2020-8-07T04:34:56Z
2020-08-07T02:37:11Z,42.805,6.029,13.2991,4.60000,2470.124,2020-8-07T04:38:00Z
2020-08-07T02:40:15Z,42.805,6.029,13.2992,4.60041,2470.124,2020-8-07T04:41:03Z
2020-08-07T02:43:18Z,42.805,6.029,13.3007,4.60040,2470.087,2020-8-07T04:44:06Z
2020-08-07T02:46:21Z,42.805,6.029,13.2999,4.60029,2470.087,2020-8-07T04:47:10Z
2020-08-07T02:49:24Z,42.805,6.029,13.2982,4.60009,2470.11,2020-8-07T04:50:13Z
2020-08-07T02:52:28Z,42.805,6.029,13.2992,4.60026,2470.124,2020-8-07T04:53:16Z
2020-08-07T02:55:31Z,42.805,6.029,13.3020,4.60045,2470.1,2020-8-07T04:56:19Z
2020-08-07T02:58:34Z,42.805,6.029,13.3000,4.60023,2470.124,2020-8-07T04:59:23Z
2020-08-07T03:01:37Z,42.805,6.029,13.3007,4.60020,2470.087,2020-8-07T05:02:26Z
2020-08-07T03:04:40Z,42.805,6.029,13.2987,4.60033,2470.087,2020-8-07T05:05:29Z
2020-08-07T03:07:44Z,42.805,6.029,13.2997,4.60035,2470.063,2020-8-07T05:08:32Z
2020-08-07T03:10:47Z,42.805,6.029,13.3001,4.60033,2470.063,2020-8-07T05:11:36Z
2020-08-07T03:13:50Z,42.805,6.029,13.3005,4.60028,2470.087,2020-8-07T05:14:39Z
2020-08-07T03:16:53Z,42.805,6.029,13.2994,4.60030,2470.077,2020-8-07T05:17:42Z
2020-08-07T03:19:57Z,42.805,6.029,13.3000,4.60038,2470.077,2020-8-07T05:20:45Z
2020-08-07T03:23:00Z,42.805,6.029,13.3009,4.60027,2470.087,2020-8-07T05:23:48Z
2020-08-07T03:26:03Z,42.805,6.029,13.3014,4.60001,2470.063,2020-8-07T05:26:52Z
2020-08-07T03:29:06Z,42.805,6.029,13.2999,4.60033,2470.1,2020-8-07T05:29:55Z
2020-08-07T03:32:09Z,42.805,6.029,13.2995,4.60018,2470.063,2020-8-07T05:32:58Z
2020-08-07T03:35:13Z,42.805,6.029,13.3005,4.60040,2470.077,2020-8-07T05:36:01Z
2020-08-07T03:38:16Z,42.805,6.029,13.3002,4.60026,2470.063,2020-8-07T05:39:05Z
2020-08-07T03:41:19Z,42.805,6.029,13.3011,4.60043,2470.087,2020-8-07T05:42:08Z
2020-08-07T03:44:23Z,42.805,6.029,13.2994,4.60015,2470.077,2020-8-07T05:45:11Z
2020-08-07T03:47:26Z,42.805,6.029,13.3017,4.60041,2470.017,2020-8-07T05:48:15Z
2020-08-07T03:50:29Z,42.805,6.029,13.3009,4.60011,2470.053,2020-8-07T05:51:18Z
2020-08-07T03:53:33Z,42.805,6.029,13.3006,4.60027,2470.04,2020-8-07T05:54:21Z
2020-08-07T03:56:36Z,42.805,6.029,13.2990,4.60039,2470.077,2020-8-07T05:57:25Z
2020-08-07T03:59:40Z,42.805,6.029,13.3009,4.60046,2470.077,2020-8-07T06:00:28Z
2020-08-07T04:02:43Z,42.805,6.029,13.3006,4.60033,2470.077,2020-8-07T06:03:31Z
2020-08-07T04:05:46Z,42.805,6.029,13.3004,4.60031,2470.087,2020-8-07T06:06:35Z
2020-08-07T04:08:49Z,42.805,6.029,13.3019,4.60044,2470.053,2020-8-07T06:09:38Z
2020-08-07T04:11:52Z,42.805,6.029,13.3021,4.60049,2470.087,2020-8-07T06:12:41Z
2020-08-07T04:14:56Z,42.805,6.029,13.3004,4.60032,2470.063,2020-8-07T06:15:44Z
2020-08-07T04:17:59Z,42.805,6.029,13.2999,4.60026,2470.053,2020-8-07T06:18:47Z
2020-08-07T04:21:02Z,42.805,6.029,13.3000,4.60039,2470.133,2020-8-07T06:21:51Z
2020-08-07T04:24:05Z,42.805,6.029,13.3006,4.60034,2470.077,2020-8-07T06:24:54Z
2020-08-07T04:27:09Z,42.805,6.029,13.3019,4.60045,2470.077,2020-8-07T06:27:57Z
2020-08-07T04:30:12Z,42.805,6.029,13.3006,4.60022,2470.03,2020-8-07T06:31:00Z
2020-08-07T04:33:15Z,42.805,6.029,13.3003,4.60026,2470.063,2020-8-07T06:34:03Z
2020-08-07T04:36:18Z,42.805,6.029,13.3000,4.59999,2470.063,2020-8-07T06:37:07Z
2020-08-07T04:39:21Z,42.805,6.029,13.3006,4.60043,2470.04,2020-8-07T06:40:10Z
2020-08-07T04:42:25Z,42.805,6.029,13.3004,4.60014,2470.053,2020-8-07T06:43:13Z
2020-08-07T04:45:28Z,42.805,6.029,13.3012,4.60057,2470.063,2020-8-07T06:46:17Z
2020-08-07T04:48:32Z,42.805,6.029,13.3011,4.60041,2470.063,2020-8-07T06:49:20Z
2020-08-07T04:51:35Z,42.805,6.029,13.3018,4.60041,2470.04,2020-8-07T06:52:23Z
2020-08-07T04:54:38Z,42.805,6.029,13.3006,4.60046,2470.087,2020-8-07T06:55:27Z
2020-08-07T04:57:41Z,42.805,6.029,13.3014,4.60014,2470.087,2020-8-07T06:58:30Z
2020-08-07T05:00:44Z,42.805,6.029,13.3012,4.60039,2470.063,2020-8-07T07:01:33Z
2020-08-07T05:03:48Z,42.805,6.029,13.3014,4.60042,2470.063,2020-8-07T07:04:36Z
2020-08-07T05:06:51Z,42.805,6.029,13.3014,4.60010,2470.087,2020-8-07T07:07:39Z
2020-08-07T05:09:54Z,42.805,6.029,13.3002,4.60013,2470.077,2020-8-07T07:10:43Z
2020-08-07T05:12:57Z,42.805,6.029,13.2991,4.60039,2470.063,2020-8-07T07:13:46Z
2020-08-07T05:16:00Z,42.805,6.029,13.3014,4.60054,2470.04,2020-8-07T07:16:49Z
2020-08-07T05:19:04Z,42.805,6.029,13.3018,4.60041,2470.077,2020-8-07T07:19:53Z
2020-08-07T05:22:07Z,42.805,6.029,13.3002,4.60031,2470.063,2020-8-07T07:22:56Z
2020-08-07T05:25:10Z,42.805,6.029,13.3012,4.60015,2470.077,2020-8-07T07:25:59Z
2020-08-07T05:28:14Z,42.805,6.029,13.3019,4.60041,2470.087,2020-8-07T07:29:02Z
2020-08-07T05:31:17Z,42.805,6.029,13.3014,4.60038,2470.087,2020-8-07T07:32:05Z
2020-08-07T05:34:20Z,42.805,6.029,13.3029,4.60043,2470.087,2020-8-07T07:35:09Z
2020-08-07T05:37:23Z,42.805,6.029,13.3005,4.60064,2470.11,2020-8-07T07:38:12Z
2020-08-07T05:40:27Z,42.805,6.029,13.3004,4.60046,2470.063,2020-8-07T07:41:15Z
2020-08-07T05:43:30Z,42.805,6.029,13.3011,4.60048,2470.1,2020-8-07T07:44:18Z
2020-08-07T05:46:33Z,42.805,6.029,13.3019,4.60060,2470.096,2020-8-07T07:47:21Z
2020-08-07T05:49:36Z,42.805,6.029,13.3011,4.60050,2470.11,2020-8-07T07:50:25Z
2020-08-07T05:52:40Z,42.805,6.029,13.3007,4.60060,2470.087,2020-8-07T07:53:28Z
2020-08-07T05:55:43Z,42.805,6.029,13.3007,4.60038,2470.11,2020-8-07T07:56:31Z
2020-08-07T05:58:46Z,42.805,6.029,13.2986,4.60012,2470.063,2020-8-07T07:59:35Z
2020-08-07T06:01:49Z,42.805,6.029,13.3006,4.60019,2470.087,2020-8-07T08:02:38Z
2020-08-07T06:04:52Z,42.805,6.029,13.3016,4.60032,2470.087,2020-8-07T08:05:41Z
2020-08-07T06:07:56Z,42.805,6.029,13.3009,4.60021,2470.087,2020-8-07T08:08:44Z
2020-08-07T06:10:59Z,42.805,6.029,13.3011,4.60050,2470.124,2020-8-07T08:11:48Z
2020-08-07T06:14:02Z,42.805,6.029,13.3019,4.60046,2470.11,2020-8-07T08:14:51Z
2020-08-07T06:17:05Z,42.805,6.029,13.3018,4.60039,2470.124,2020-8-07T08:17:54Z
2020-08-07T06:20:09Z,42.805,6.029,13.3014,4.60049,2470.124,2020-8-07T08:20:57Z
2020-08-07T06:23:12Z,42.805,6.029,13.3006,4.60011,2470.147,2020-8-07T08:24:01Z
2020-08-07T06:26:15Z,42.805,6.029,13.2991,4.60026,2470.1,2020-8-07T08:27:04Z
2020-08-07T06:29:19Z,42.805,6.029,13.3004,4.60033,2470.133,2020-8-07T08:30:07Z
2020-08-07T06:32:22Z,42.805,6.029,13.3000,4.60052,2470.133,2020-8-07T08:33:10Z
2020-08-07T06:35:25Z,42.805,6.029,13.3025,4.60045,2470.133,2020-8-07T08:36:13Z
2020-08-07T06:38:28Z,42.805,6.029,13.3005,4.60040,2470.133,2020-8-07T08:39:17Z
2020-08-07T06:41:31Z,42.805,6.029,13.3010,4.60024,2470.124,2020-8-07T08:42:20Z
2020-08-07T06:44:35Z,42.805,6.029,13.3015,4.60056,2470.133,2020-8-07T08:45:23Z
2020-08-07T06:47:38Z,42.805,6.029,13.2998,4.60026,2470.124,2020-8-07T08:48:26Z
2020-08-07T06:50:41Z,42.805,6.029,13.3006,4.60047,2470.087,2020-8-07T08:51:30Z
2020-08-07T06:53:44Z,42.805,6.029,13.3022,4.60033,2470.171,2020-8-07T08:54:33Z
2020-08-07T06:56:48Z,42.805,6.029,13.3011,4.60067,2470.147,2020-8-07T08:57:36Z
2020-08-07T06:59:51Z,42.805,6.029,13.2996,4.60044,2470.11,2020-8-07T09:00:39Z
2020-08-07T07:02:54Z,42.805,6.029,13.2994,4.60029,2470.156,2020-8-07T09:03:43Z
2020-08-07T07:05:57Z,42.805,6.029,13.3009,4.60047,2470.11,2020-8-07T09:06:46Z
2020-08-07T07:09:01Z,42.805,6.029,13.3011,4.60033,2470.133,2020-8-07T09:09:49Z
2020-08-07T07:12:04Z,42.805,6.029,13.3007,4.60031,2470.156,2020-8-07T09:12:52Z
2020-08-07T07:15:07Z,42.805,6.029,13.2982,4.60033,2470.156,2020-8-07T09:15:56Z
2020-08-07T07:18:11Z,42.805,6.029,13.2986,4.60031,2470.18,2020-8-07T09:18:59Z
2020-08-07T07:21:14Z,42.805,6.029,13.2993,4.60021,2470.18,2020-8-07T09:22:02Z
2020-08-07T07:24:17Z,42.805,6.029,13.3009,4.60029,2470.171,2020-8-07T09:25:05Z
2020-08-07T07:27:20Z,42.805,6.029,13.3020,4.60063,2470.147,2020-8-07T09:28:09Z
2020-08-07T07:30:23Z,42.805,6.029,13.3022,4.60035,2470.171,2020-8-07T09:31:12Z
2020-08-07T07:33:27Z,42.805,6.029,13.2990,4.60040,2470.171,2020-8-07T09:34:15Z
2020-08-07T07:36:30Z,42.805,6.029,13.2993,4.60043,2470.156,2020-8-07T09:37:18Z
2020-08-07T07:39:33Z,42.805,6.029,13.3013,4.60044,2470.171,2020-8-07T09:40:22Z
2020-08-07T07:42:36Z,42.805,6.029,13.3006,4.60026,2470.194,2020-8-07T09:43:25Z
2020-08-07T07:45:40Z,42.805,6.029,13.3015,4.60043,2470.194,2020-8-07T09:46:28Z
2020-08-07T07:48:43Z,42.805,6.029,13.3022,4.60057,2470.18,2020-8-07T09:49:31Z
2020-08-07T07:51:46Z,42.805,6.029,13.3021,4.60033,2470.203,2020-8-07T09:52:35Z
2020-08-07T07:54:49Z,42.805,6.029,13.3007,4.60037,2470.156,2020-8-07T09:55:38Z
2020-08-07T07:57:53Z,42.805,6.029,13.3002,4.60015,2470.194,2020-8-07T09:58:41Z
2020-08-07T08:00:56Z,42.805,6.029,13.2997,4.60029,2470.18,2020-8-07T10:01:44Z
2020-08-07T08:03:59Z,42.805,6.029,13.2992,4.60029,2470.194,2020-8-07T10:04:48Z
2020-08-07T08:07:02Z,42.805,6.029,13.3010,4.60039,2470.18,2020-8-07T10:07:51Z
2020-08-07T08:10:05Z,42.805,6.029,13.3022,4.60040,2470.171,2020-8-07T10:10:54Z
2020-08-07T08:13:09Z,42.805,6.029,13.3003,4.60053,2470.18,2020-8-07T10:13:57Z
2020-08-07T08:16:12Z,42.805,6.029,13.3006,4.60031,2470.203,2020-8-07T10:17:00Z
2020-08-07T08:19:15Z,42.805,6.029,13.2983,4.60005,2470.18,2020-8-07T10:20:04Z
2020-08-07T08:22:19Z,42.805,6.029,13.3005,4.60031,2470.217,2020-8-07T10:23:07Z
2020-08-07T08:25:22Z,42.805,6.029,13.2996,4.60020,2470.18,2020-8-07T10:26:10Z
2020-08-07T08:28:25Z,42.805,6.029,13.3002,4.60044,2470.18,2020-8-07T10:29:14Z
2020-08-07T08:31:28Z,42.805,6.029,13.3014,4.60027,2470.18,2020-8-07T10:32:17Z
2020-08-07T08:34:31Z,42.805,6.029,13.3003,4.60023,2470.217,2020-8-07T10:35:20Z
2020-08-07T08:37:35Z,42.805,6.029,13.2991,4.60044,2470.203,2020-8-07T10:38:23Z
2020-08-07T08:40:38Z,42.805,6.029,13.2988,4.60042,2470.203,2020-8-07T10:41:27Z
2020-08-07T08:43:41Z,42.805,6.029,13.2985,4.60039,2470.18,2020-8-07T10:44:30Z
2020-08-07T08:46:44Z,42.805,6.029,13.2988,4.60019,2470.194,2020-8-07T10:47:33Z
2020-08-07T08:49:48Z,42.805,6.029,13.2981,4.60011,2470.227,2020-8-07T10:50:36Z
2020-08-07T08:52:51Z,42.805,6.029,13.2981,4.60015,2470.18,2020-8-07T10:53:40Z
2020-08-07T08:55:54Z,42.805,6.029,13.2979,4.60011,2470.24,2020-8-07T10:56:43Z
2020-08-07T08:58:58Z,42.805,6.029,13.2993,4.60039,2470.264,2020-8-07T10:59:46Z
2020-08-07T09:02:01Z,42.805,6.029,13.3006,4.60016,2470.217,2020-8-07T11:02:49Z
2020-08-07T09:05:04Z,42.805,6.029,13.3001,4.60036,2470.18,2020-8-07T11:05:52Z
2020-08-07T09:08:07Z,42.805,6.029,13.2979,4.60041,2470.18,2020-8-07T11:08:56Z
2020-08-07T09:11:10Z,42.805,6.029,13.2976,4.60029,2470.194,2020-8-07T11:11:59Z
2020-08-07T09:14:14Z,42.805,6.029,13.2987,4.60016,2470.227,2020-8-07T11:15:02Z
2020-08-07T09:17:17Z,42.805,6.029,13.2979,4.60015,2470.18,2020-8-07T11:18:05Z
2020-08-07T09:20:20Z,42.805,6.029,13.2984,4.60011,2470.24,2020-8-07T11:21:09Z
2020-08-07T09:23:23Z,42.805,6.029,13.2993,4.60032,2470.227,2020-8-07T11:24:12Z
2020-08-07T09:26:27Z,42.805,6.029,13.2982,4.60031,2470.171,2020-8-07T11:27:15Z
2020-08-07T09:29:30Z,42.805,6.029,13.2983,4.60030,2470.18,2020-8-07T11:30:18Z
2020-08-07T09:32:33Z,42.805,6.029,13.2988,4.60030,2470.156,2020-8-07T11:33:22Z
2020-08-07T09:35:36Z,42.805,6.029,13.2988,4.60034,2470.156,2020-8-07T11:36:25Z
2020-08-07T09:38:39Z,42.805,6.029,13.3002,4.60031,2470.203,2020-8-07T11:39:28Z
2020-08-07T09:41:43Z,42.805,6.029,13.2993,4.60040,2470.18,2020-8-07T11:42:31Z
2020-08-07T09:44:46Z,42.805,6.029,13.3013,4.60026,2470.18,2020-8-07T11:45:35Z
2020-08-07T09:47:49Z,42.805,6.029,13.2995,4.60042,2470.171,2020-8-07T11:48:38Z
2020-08-07T09:50:52Z,42.805,6.029,13.2996,4.60052,2470.18,2020-8-07T11:51:41Z
2020-08-07T09:53:56Z,42.805,6.029,13.2991,4.60013,2470.18,2020-8-07T11:54:44Z
2020-08-07T09:56:59Z,42.805,6.029,13.2990,4.60010,2470.194,2020-8-07T11:57:48Z
2020-08-07T10:00:02Z,42.805,6.029,13.2982,4.60027,2470.156,2020-8-07T12:00:51Z
2020-08-07T10:03:05Z,42.805,6.029,13.2981,4.60003,2470.171,2020-8-07T12:03:54Z
2020-08-07T10:06:09Z,42.805,6.029,13.2985,4.60020,2470.18,2020-8-07T12:06:57Z
2020-08-07T10:09:12Z,42.805,6.029,13.2981,4.60013,2470.194,2020-8-07T12:10:01Z
2020-08-07T10:12:15Z,42.805,6.029,13.2982,4.60010,2470.18,2020-8-07T12:13:04Z
2020-08-07T10:15:18Z,42.805,6.029,13.2990,4.60032,2470.18,2020-8-07T12:16:07Z
2020-08-07T10:18:22Z,42.805,6.029,13.2986,4.60039,2470.156,2020-8-07T12:19:10Z
2020-08-07T10:21:25Z,42.805,6.029,13.3007,4.60015,2470.156,2020-8-07T12:22:13Z
2020-08-07T10:24:28Z,42.805,6.029,13.2996,4.60056,2470.171,2020-8-07T12:25:17Z
2020-08-07T10:27:32Z,42.805,6.029,13.3007,4.60003,2470.156,2020-8-07T12:28:20Z
2020-08-07T10:30:35Z,42.805,6.029,13.2991,4.60024,2470.171,2020-8-07T12:31:23Z
2020-08-07T10:33:38Z,42.805,6.029,13.2983,4.60039,2470.156,2020-8-07T12:34:27Z
2020-08-07T10:36:41Z,42.805,6.029,13.2986,4.60036,2470.156,2020-8-07T12:37:30Z
2020-08-07T10:39:44Z,42.805,6.029,13.3005,4.60029,2470.194,2020-8-07T12:40:33Z
2020-08-07T10:42:48Z,42.805,6.029,13.3005,4.60072,2470.156,2020-8-07T12:43:36Z
2020-08-07T10:45:51Z,42.805,6.029,13.3000,4.60035,2470.147,2020-8-07T12:46:39Z
2020-08-07T10:48:54Z,42.805,6.029,13.2991,4.60052,2470.133,2020-8-07T12:49:43Z
2020-08-07T10:51:58Z,42.805,6.029,13.2992,4.60020,2470.133,2020-8-07T12:52:46Z
2020-08-07T10:55:01Z,42.805,6.029,13.3000,4.60017,2470.147,2020-8-07T12:55:50Z
2020-08-07T10:58:04Z,42.805,6.029,13.2990,4.60030,2470.156,2020-8-07T12:58:53Z
2020-08-07T11:01:07Z,42.805,6.029,13.2995,4.60038,2470.133,2020-8-07T13:01:56Z
2020-08-07T11:04:11Z,42.805,6.029,13.2990,4.60026,2470.133,2020-8-07T13:04:59Z
2020-08-07T11:07:14Z,42.805,6.029,13.2983,4.60027,2470.124,2020-8-07T13:08:02Z
2020-08-07T11:10:17Z,42.805,6.029,13.2996,4.60011,2470.11,2020-8-07T13:11:06Z
2020-08-07T11:13:20Z,42.805,6.029,13.2978,4.60015,2470.133,2020-8-07T13:14:09Z
2020-08-07T11:16:24Z,42.805,6.029,13.2989,4.60026,2470.156,2020-8-07T13:17:12Z
2020-08-07T11:19:27Z,42.805,6.029,13.2987,4.60026,2470.11,2020-8-07T13:20:16Z
2020-08-07T11:22:30Z,42.805,6.029,13.2997,4.60024,2470.11,2020-8-07T13:23:19Z
2020-08-07T11:25:33Z,42.805,6.029,13.2986,4.60026,2470.147,2020-8-07T13:26:22Z
2020-08-07T11:28:36Z,42.805,6.029,13.2991,4.60020,2470.147,2020-8-07T13:29:25Z
2020-08-07T11:31:40Z,42.805,6.029,13.2986,4.60031,2470.11,2020-8-07T13:32:28Z
2020-08-07T11:34:43Z,42.805,6.029,13.2998,4.60028,2470.11,2020-8-07T13:35:32Z
2020-08-07T11:37:46Z,42.805,6.029,13.2982,4.60007,2470.133,2020-8-07T13:38:35Z
2020-08-07T11:40:49Z,42.805,6.029,13.2988,4.59998,2470.11,2020-8-07T13:41:38Z
2020-08-07T11:43:53Z,42.805,6.029,13.2986,4.60004,2470.133,2020-8-07T13:44:41Z
2020-08-07T11:46:56Z,42.805,6.029,13.2983,4.60003,2470.11,2020-8-07T13:47:45Z
2020-08-07T11:49:59Z,42.805,6.029,13.2986,4.60014,2470.11,2020-8-07T13:50:48Z
2020-08-07T11:53:02Z,42.805,6.029,13.2986,4.60022,2470.11,2020-8-07T13:53:51Z
2020-08-07T11:56:06Z,42.805,6.029,13.3001,4.60020,2470.087,2020-8-07T13:56:54Z
2020-08-07T11:59:09Z,42.805,6.029,13.2988,4.60004,2470.087,2020-8-07T13:59:58Z
2020-08-07T12:02:12Z,42.805,6.029,13.2982,4.60014,2470.124,2020-8-07T14:03:01Z
2020-08-07T12:05:16Z,42.805,6.029,13.2983,4.59999,2470.124,2020-8-07T14:06:04Z
2020-08-07T12:08:19Z,42.805,6.029,13.2986,4.60035,2470.11,2020-8-07T14:09:07Z
2020-08-07T12:11:22Z,42.805,6.029,13.2986,4.60006,2470.11,2020-8-07T14:12:11Z
2020-08-07T12:14:25Z,42.805,6.029,13.2987,4.60021,2470.124,2020-8-07T14:15:14Z
2020-08-07T12:17:28Z,42.805,6.029,13.2982,4.60035,2470.1,2020-8-07T14:18:17Z
2020-08-07T12:20:32Z,42.805,6.029,13.2991,4.60043,2470.11,2020-8-07T14:21:21Z
2020-08-07T12:23:35Z,42.805,6.029,13.2992,4.60040,2470.11,2020-8-07T14:24:24Z
2020-08-07T12:26:39Z,42.805,6.029,13.2996,4.60028,2470.133,2020-8-07T14:27:27Z
2020-08-07T12:29:42Z,42.805,6.029,13.2985,4.60020,2470.1,2020-8-07T14:30:30Z
2020-08-07T12:32:45Z,42.805,6.029,13.2990,4.60030,2470.049,2020-8-07T14:33:34Z
2020-08-07T12:35:48Z,42.805,6.029,13.2986,4.60009,2470.124,2020-8-07T14:36:37Z
2020-08-07T12:38:52Z,42.805,6.029,13.2999,4.60033,2470.11,2020-8-07T14:39:40Z
2020-08-07T12:41:55Z,42.805,6.029,13.2983,4.60050,2470.087,2020-8-07T14:42:43Z
2020-08-07T12:44:58Z,42.805,6.029,13.2993,4.60023,2470.124,2020-8-07T14:45:47Z
2020-08-07T12:48:01Z,42.805,6.029,13.2988,4.60025,2470.1,2020-8-07T14:48:50Z
2020-08-07T12:51:05Z,42.805,6.029,13.2991,4.60031,2470.11,2020-8-07T14:51:53Z
2020-08-07T12:54:08Z,42.805,6.029,13.2983,4.60046,2470.1,2020-8-07T14:54:56Z
2020-08-07T12:57:11Z,42.805,6.029,13.2981,4.60024,2470.077,2020-8-07T14:58:00Z
2020-08-07T13:00:14Z,42.805,6.029,13.2993,4.60012,2470.11,2020-8-07T15:01:03Z
2020-08-07T13:03:18Z,42.805,6.029,13.2983,4.60008,2470.1,2020-8-07T15:04:06Z
2020-08-07T13:06:21Z,42.805,6.029,13.2982,4.60002,2470.087,2020-8-07T15:07:09Z
2020-08-07T13:09:24Z,42.805,6.029,13.2993,4.60019,2470.063,2020-8-07T15:10:13Z
2020-08-07T13:12:27Z,42.805,6.029,13.2983,4.60003,2470.087,2020-8-07T15:13:16Z
2020-08-07T13:15:30Z,42.805,6.029,13.2993,4.59997,2470.017,2020-8-07T15:16:19Z
2020-08-07T13:18:34Z,42.805,6.029,13.2980,4.60002,2470.087,2020-8-07T15:19:22Z
2020-08-07T13:21:37Z,42.805,6.029,13.2981,4.59999,2470.077,2020-8-07T15:22:26Z
2020-08-07T13:24:40Z,42.805,6.029,13.2978,4.59996,2470.063,2020-8-07T15:25:29Z
2020-08-07T13:27:43Z,42.805,6.029,13.2996,4.60010,2470.1,2020-8-07T15:28:32Z
2020-08-07T13:30:47Z,42.805,6.029,13.2982,4.60003,2470.087,2020-8-07T15:31:35Z
2020-08-07T13:33:50Z,42.805,6.029,13.2989,4.60002,2470.087,2020-8-07T15:34:39Z
2020-08-07T13:36:53Z,42.805,6.029,13.2990,4.60005,2470.087,2020-8-07T15:37:42Z
2020-08-07T13:39:56Z,42.805,6.029,13.2983,4.60016,2470.077,2020-8-07T15:40:45Z
2020-08-07T13:43:00Z,42.805,6.029,13.2993,4.60020,2470.017,2020-8-07T15:43:48Z
2020-08-07T13:46:03Z,42.805,6.029,13.2987,4.60038,2470.087,2020-8-07T15:46:51Z
2020-08-07T13:49:06Z,42.805,6.029,13.2983,4.60011,2470.063,2020-8-07T15:49:55Z
2020-08-07T13:52:09Z,42.805,6.029,13.2979,4.60023,2470.087,2020-8-07T15:52:58Z
2020-08-07T13:55:12Z,42.805,6.029,13.2988,4.60014,2470.1,2020-8-07T15:56:01Z
2020-08-07T13:58:16Z,42.805,6.029,13.2990,4.60009,2470.063,2020-8-07T15:59:04Z
2020-08-07T14:01:19Z,42.805,6.029,13.2980,4.59998,2470.063,2020-8-07T16:02:08Z
2020-08-07T14:04:22Z,42.805,6.029,13.2982,4.60007,2470.053,2020-8-07T16:05:11Z
2020-08-07T14:07:26Z,42.805,6.029,13.2982,4.60023,2470.063,2020-8-07T16:08:14Z
2020-08-07T14:10:29Z,42.805,6.029,13.2985,4.60007,2470.063,2020-8-07T16:11:18Z
2020-08-07T14:13:32Z,42.805,6.029,13.2984,4.60010,2470.053,2020-8-07T16:14:21Z
2020-08-07T14:16:35Z,42.805,6.029,13.2983,4.60016,2470.087,2020-8-07T16:17:24Z
2020-08-07T14:19:39Z,42.805,6.029,13.2982,4.60009,2470.04,2020-8-07T16:20:27Z
2020-08-07T14:22:42Z,42.805,6.029,13.2979,4.59993,2470.003,2020-8-07T16:23:30Z
2020-08-07T14:25:45Z,42.805,6.029,13.2994,4.60008,2470.063,2020-8-07T16:26:34Z
2020-08-07T14:28:49Z,42.805,6.029,13.2982,4.60003,2470.04,2020-8-07T16:29:37Z
2020-08-07T14:31:52Z,42.805,6.029,13.2983,4.60005,2470.077,2020-8-07T16:32:41Z
2020-08-07T14:34:55Z,42.805,6.029,13.2976,4.60022,2470.04,2020-8-07T16:35:44Z
2020-08-07T14:37:59Z,42.805,6.029,13.2990,4.60012,2470.077,2020-8-07T16:38:47Z
2020-08-07T14:41:02Z,42.805,6.029,13.3012,4.60021,2470.04,2020-8-07T16:41:50Z
2020-08-07T14:44:05Z,42.805,6.029,13.3000,4.60032,2470.04,2020-8-07T16:44:54Z
2020-08-07T14:47:08Z,42.805,6.029,13.2993,4.60034,2470.03,2020-8-07T16:47:57Z
2020-08-07T14:50:12Z,42.805,6.029,13.2985,4.60031,2470.04,2020-8-07T16:51:00Z
2020-08-07T14:53:15Z,42.805,6.029,13.2976,4.60019,2470.04,2020-8-07T16:54:03Z
2020-08-07T14:56:18Z,42.805,6.029,13.2986,4.60014,2470.053,2020-8-07T16:57:07Z
2020-08-07T14:59:21Z,42.805,6.029,13.2993,4.60019,2470.04,2020-8-07T17:00:10Z
2020-08-07T15:02:25Z,42.805,6.029,13.2993,4.60009,2470.03,2020-8-07T17:03:13Z
2020-08-07T15:05:28Z,42.805,6.029,13.2991,4.60055,2470.017,2020-8-07T17:06:16Z
2020-08-07T15:08:31Z,42.805,6.029,13.3009,4.60021,2470.017,2020-8-07T17:09:20Z
2020-08-07T15:11:34Z,42.805,6.029,13.3010,4.60031,2470.03,2020-8-07T17:12:23Z
2020-08-07T15:14:37Z,42.805,6.029,13.2996,4.60024,2470.03,2020-8-07T17:15:26Z